E0050 Weather Reports


time (UTC)temp
C
wind
direction
speed
KPH
gust
KPH
rain 1hr
cm
rain 24hr
cm
rain mn
cm
humidity
%
barometer
mb
20260506194538 15 300 1.6 6.4 0.00 0.86 0.03 74 1011.9
20260506193107 16 283 3.2 12.9 0.00 0.86 0.03 74 1011.5
20260506191537 15 275 6.4 16.1 0.00 0.86 0.03 73 1011.3
20260506190005 15 262 8.0 19.3 0.00 0.86 0.03 73 1011.1
20260506184602 16 250 9.7 17.7 0.00 0.86 0.03 73 1010.9
20260506183027 16 267 9.7 17.7 0.00 0.86 0.03 72 1010.8
20260506181522 16 248 6.4 17.7 0.00 0.86 0.03 72 1010.7
20260506174550 16 256 8.0 20.9 0.00 0.86 0.03 71 1010.5
20260506173017 17 222 8.0 16.1 0.00 0.86 0.03 71 1010.2
20260506171513 17 208 9.7 19.3 0.00 0.86 0.03 70 1010.1
20260506170056 17 240 8.0 19.3 0.00 0.86 0.03 70 1010.2
20260506164539 17 259 11.3 20.9 0.00 0.86 0.03 70 1010.1
20260506163014 17 228 11.3 24.1 0.00 0.86 0.03 70 1010.2
20260506161503 17 246 9.7 20.9 0.00 0.86 0.03 70 1010.3
20260506160031 17 223 11.3 20.9 0.00 0.86 0.03 68 1010.4
20260506154527 17 261 9.7 17.7 0.00 0.86 0.03 68 1010.3
20260506153107 17 227 11.3 22.5 0.00 0.86 0.03 68 1010.3
20260506151532 17 296 9.7 22.5 0.00 0.86 0.03 68 1010.2
20260506144535 17 248 11.3 24.1 0.00 0.86 0.03 67 1010.5
20260506143004 17 264 14.5 25.7 0.00 0.86 0.03 67 1010.5
20260506141600 17 262 12.9 24.1 0.00 0.86 0.03 67 1010.5
20260506140029 18 222 14.5 25.7 0.00 0.86 0.03 67 1010.6
20260506134524 17 221 14.5 27.4 0.00 0.86 0.03 67 1010.7
20260506133055 17 220 11.3 22.5 0.00 0.86 0.03 68 1010.8
20260506131551 17 230 16.1 25.7 0.00 0.86 0.03 67 1010.9
20260506130020 17 253 12.9 20.9 0.00 0.86 0.03 68 1010.9
20260506124515 17 248 14.5 25.7 0.00 0.86 0.03 69 1011.0
20260506123046 17 229 12.9 25.7 0.00 0.86 0.03 70 1011.0
20260506121544 17 239 14.5 29.0 0.00 0.86 0.03 71 1011.0
20260506120007 17 229 12.9 33.8 0.00 0.86 0.03 70 1010.8
20260506114504 17 219 17.7 30.6 0.00 0.86 0.03 69 1010.8
20260506113035 17 259 14.5 29.0 0.00 0.86 0.03 70 1010.8
20260506111536 17 192 16.1 29.0 0.00 0.86 0.03 69 1010.9
20260506110105 17 267 17.7 25.7 0.00 0.86 0.03 70 1010.9
20260506104553 17 248 12.9 24.1 0.00 0.86 0.03 71 1010.9
20260506103021 17 257 12.9 27.4 0.00 0.86 0.03 72 1011.0
20260506101518 17 250 11.3 22.5 0.00 0.86 0.03 73 1011.0
20260506100048 16 259 12.9 25.7 0.00 0.86 0.03 74 1010.8
20260506094523 16 232 14.5 22.5 0.00 0.86 0.03 74 1010.8
20260506093056 16 229 14.5 20.9 0.00 0.86 0.03 74 1010.8
20260506091550 16 233 9.7 19.3 0.00 0.86 0.03 76 1010.6
20260506090022 16 262 9.7 17.7 0.00 0.86 0.03 80 1010.4
20260506084513 15 235 8.0 20.9 0.00 0.86 0.03 83 1010.4
20260506083043 15 217 8.0 20.9 0.00 0.86 0.03 85 1010.2
20260506081540 15 243 9.7 19.3 0.00 0.86 0.03 87 1010.2
20260506073038 13 227 8.0 17.7 0.00 0.86 0.03 91 1010.0
20260506071532 13 302 6.4 14.5 0.00 0.86 0.03 92 1009.8
20260506070109 13 237 4.8 12.9 0.00 0.86 0.03 92 1009.8
20260506061600 12 254 3.2 9.7 0.00 0.86 0.03 92 1009.3
20260506044552 11 13 0.0 0.0 0.03 0.86 0.03 92 1008.5
20260506043017 11 13 0.0 0.0 0.00 0.84 0.00 91 1008.4
20260506041510 11 13 0.0 0.0 0.00 0.84 0.00 91 1008.5
20260506040056 11 13 0.0 0.0 0.00 0.84 0.00 91 1008.4
20260506034538 11 13 0.0 0.0 0.00 0.84 0.00 91 1008.5
20260506033006 11 14 0.0 0.0 0.00 0.84 0.00 91 1008.5
20260506031555 11 14 0.0 1.6 0.00 0.84 0.00 91 1008.5
20260506030013 11 12 0.0 1.6 0.00 0.84 0.00 90 1008.4
20260506024515 11 12 1.6 4.8 0.00 0.84 0.00 91 1008.2
20260506023037 12 153 0.0 0.0 0.00 0.89 0.84 90 1008.0
20260506021534 12 153 0.0 0.0 0.00 0.89 0.84 90 1007.8
20260506020001 12 153 0.0 0.0 0.00 0.89 0.84 90 1007.5
20260506014600 12 153 1.6 4.8 0.00 0.89 0.84 90 1007.4
20260506013028 12 51 1.6 11.3 0.03 1.09 0.84 90 1007.1
20260506011504 12 43 1.6 9.7 0.46 1.09 0.84 89 1007.4
20260506010038 12 13 3.2 8.0 0.76 1.09 0.84 89 1007.7
20260506004551 13 24 1.6 8.0 0.81 1.09 0.84 89 1008.2
20260506003017 14 350 8.0 20.9 0.79 1.07 0.79 88 1008.3
20260506001534 15 309 1.6 4.8 0.38 0.64 0.38 88 1009.1
20260506000002 15 26 0.0 4.8 0.08 0.33 0.08 88 1008.5
20260505234521 15 77 1.6 11.3 0.03 0.28 0.03 87 1008.3
20260505233105 15 135 1.6 8.0 0.03 0.48 0.03 87 1008.3
20260505231509 15 43 4.8 11.3 0.00 0.46 0.00 86 1008.7
20260505230039 15 78 3.2 9.7 0.00 0.46 0.00 86 1009.1
20260505224557 15 105 0.0 6.4 0.00 0.46 0.00 86 1009.2
20260505223024 15 71 3.2 9.7 0.00 0.79 0.00 86 1008.9
20260505221541 15 92 3.2 11.3 0.00 0.79 0.00 86 1009.1
20260505220011 15 71 3.2 14.5 0.00 0.79 0.00 85 1009.2
20260505214508 15 81 3.2 12.9 0.00 0.79 0.00 85 1009.5
20260505213038 16 69 4.8 14.5 0.00 0.79 0.00 84 1009.8
20260505211610 16 105 3.2 11.3 0.00 0.79 0.00 84 1010.1
20260505210028 16 101 3.2 12.9 0.00 0.79 0.00 84 1010.3
20260505204545 16 65 1.6 6.4 0.00 0.79 0.00 84 1010.3
20260505203010 16 134 0.0 6.4 0.00 0.79 0.00 83 1010.4
20260505201531 16 92 0.0 8.0 0.00 0.79 0.00 83 1010.1